STARLINK-32699, 62482

Orbit data source: Space-Track

STARLINK-32699, 62482 is a payload satellite owned by SpaceX/Seattle (US) in LEO that was launched on Tue, 31 Dec 2024 UTC via an FALCON 9 launch vehicle from the Air Force Eastern Test Range (AFETR). Payload-class satellites include a variety of spacecraft equipped with specific instruments for various scientific and technological missions. These include communications satellites like Starlink; space stations such as the ISS; scientific satellites like the Hubble; Earth observation satellites from companies like Planet Labs, Umbra, and HawkEye 360; GPS; miniature CubeSats for education and research; and military/defense satellites.

Loading next visibility...
Identifier
62482, 2024-254W
Orbit
LEO
Country
Flag of USUS
Related business
Manufacturer
SpaceX/Seattle
Mission
Operational Commercial Communications
Bus & Motor
STARLINK V2M, Unknown motor
Mass
730 kg wet, ~700 kg dry
Launch date (UTC)
2024-12-31 (2 years ago)
Launch vehicle
FALCON 9
Launch site
Air Force Eastern Test Range (AFETR)
Object type
Payload
Rocket body
Debris
Shape & HBR
Box + 2 Pan, 17.7 m
Radar Cross Section
33.884 m², Large (>1 m²)

Expand to show TLE details & history
Last TLE update: 9 hours ago

TLE from 9 hours ago
0 STARLINK-32699
1 62482U 24254W   26258.09955567  .00019602  00000-0  71959-3 0  9990
2 62482  43.0029  29.8934 0001226 256.8647 103.2068 15.27596870 96438
Epoch: 2026-09-15T02:23Z
TLE epoch observation values (Epoch: 2026-09-15T02:23:21.609Z)
Latitude
-0.00003°
Longitude
-0.01703°
Altitude
482.967 km
Speed
7.626 km/s
True Right ascension
01h 59m 34s
True Declination
0° 00' 00"
Sunlit
Object was in full shadow at epoch
Visualization orbit readout
Latitude
Unknown
Longitude
Unknown
Altitude
Unknown
Speed
Unknown
Apparent Right ascension
Unknown
Apparent Declination
Unknown
Sunlit
N/A
Visualization observer readout
Local Sidereal Time
03:45:05
Azimuth
Unknown
Elevation
Unknown
Doppler factor
Unknown
Orbital elements
Apogee altitude
485.785 km
Perigee altitude
484.102 km
Semi-major axis
6,863.08 km
Eccentricity
0.00012
Inclination
43.0029°
RAAN
29.8934°
Arg. of periapsis
256.8647°
True anomaly
103.22048°
Mean anomaly
103.2068°
Eccentric anomaly
103.21364°
Mean motion
3.81737 °/min
Orbital period
94.31 mins
BSTAR
0.00071959
Loading maneuver chart data...
Computing Atmospheric mass density...
Loading historical data...
Loading historical data...
Loading historical data...
Loading historical data...
Loading historical data...
Loading historical data...
Loading historical data...

Documentation

Showing up to 5 results
|